User: anonymous   Login
Location: Helsinki
(60.1699°N, 24.9384°E)
Time: 08:12:04
(UTC+02:00)
Language:

RS-44 - Orbit

View from above orbital plane
View from above orbital plane
View from above satellite
View from above satellite

Ground track
Ground track

The orbit data is extracted from the following two-line orbital elements,

1 44909U 19096E   22333.38936271  .00000020  00000-0  43945-4 0  9994
2 44909  82.5187 120.7122 0216465 294.1838  63.6771 12.79716697136604
Epoch (UTC): 29 November 2022 09:20:40
Eccentricity: 0.0216465
inclination: 82.5187°
perigee height: 1175 km
apogee height: 1510 km
right ascension of ascending node: 120.7122°
argument of perigee: 294.1838°
revolutions per day: 12.79716697
mean anomaly at epoch: 63.6771°
orbit number at epoch: 13660

The dashed part of the orbit path shows where the satellite is in the earth's shadow,  

DLR